GW3912 Weather Reports


time (UTC)temp
F
wind
direction
speed
knots
gust
knots
rain 1hr
in
rain 24hr
in
rain mn
in
humidity
%
barometer
mb
20260507063026 73 159 0.9 3.5 0.00 0.00 0.00 78 1012.7
20260507062507 74 209 0.9 3.5 0.00 0.00 0.00 78 1012.8
20260507062007 74 143 0.0 3.5 0.00 0.00 0.00 78 1013.1
20260507061524 73 177 0.0 4.3 0.00 0.00 0.00 78 1013.1
20260507061009 74 194 0.0 4.3 0.00 0.00 0.00 78 1013.3
20260507060508 74 161 0.0 2.6 0.00 0.00 0.00 78 1013.5
20260507060036 73 219 0.9 3.5 0.00 0.00 0.00 78 1013.6
20260507055509 74 170 0.0 5.2 0.00 0.00 0.00 78 1013.6
20260507055016 74 219 0.0 5.2 0.00 0.00 0.00 78 1013.7
20260507054527 74 165 0.9 5.2 0.00 0.00 0.00 78 1013.8
20260507054010 74 187 0.0 2.6 0.00 0.00 0.00 78 1014.0
20260507053505 74 200 0.0 6.1 0.00 0.00 0.00 78 1014.2
20260507053029 74 144 0.0 6.1 0.00 0.00 0.00 78 1014.3
20260507052505 74 283 0.0 4.3 0.00 0.00 0.00 78 1014.2
20260507052008 74 196 0.0 4.3 0.00 0.00 0.00 78 1014.3
20260507051516 74 92 0.0 3.5 0.00 0.00 0.00 78 1014.2
20260507051008 74 123 0.9 2.6 0.00 0.00 0.00 78 1014.0
20260507050510 74 155 0.0 2.6 0.00 0.00 0.00 78 1014.0
20260507050032 74 122 0.0 4.3 0.00 0.00 0.00 78 1014.3
20260507045507 74 167 0.9 4.3 0.00 0.00 0.00 78 1014.4
20260507045008 74 47 0.0 3.5 0.00 0.00 0.00 78 1014.4
20260507044524 74 189 0.0 2.6 0.00 0.00 0.00 78 1014.3
20260507044008 74 236 0.0 2.6 0.00 0.00 0.00 79 1014.2
20260507043506 74 44 0.0 2.6 0.00 0.00 0.00 79 1014.2
20260507043025 73 260 0.0 3.5 0.00 0.00 0.00 79 1014.2
20260507042506 73 146 0.0 3.5 0.00 0.00 0.00 79 1014.2
20260507042002 73 109 0.0 1.7 0.00 0.00 0.00 79 1014.3
20260507041516 74 38 0.0 3.5 0.00 0.00 0.00 79 1014.3
20260507041004 73 184 0.0 3.5 0.00 0.00 0.00 79 1014.1
20260507040508 74 146 0.0 4.3 0.00 0.00 0.00 79 1014.2
20260507040020 74 188 0.0 4.3 0.00 0.00 0.00 79 1014.2
20260507035508 74 229 0.0 1.7 0.00 0.00 0.00 79 1014.2
20260507035008 74 196 0.0 2.6 0.00 0.00 0.00 79 1014.1
20260507034533 74 234 0.9 4.3 0.00 0.00 0.00 79 1014.0
20260507034014 74 169 0.9 4.3 0.00 0.00 0.00 79 1014.0
20260507033509 74 250 0.9 3.5 0.00 0.00 0.00 80 1013.9
20260507033026 74 255 0.0 3.5 0.00 0.00 0.00 80 1013.9
20260507032507 74 229 0.0 2.6 0.00 0.00 0.00 80 1013.7
20260507032014 74 90 0.0 2.6 0.00 0.00 0.00 80 1013.8
20260507031527 74 186 0.9 2.6 0.00 0.00 0.00 80 1013.9
20260507031010 74 194 0.9 2.6 0.00 0.00 0.00 80 1013.8
20260507030507 74 204 0.0 2.6 0.00 0.00 0.00 79 1013.7
20260507030016 74 220 0.0 2.6 0.00 0.00 0.00 79 1013.5
20260507025506 74 200 0.0 3.5 0.00 0.00 0.00 80 1013.6
20260507025008 74 209 0.0 3.5 0.00 0.00 0.00 80 1014.0
20260507024526 74 177 0.0 2.6 0.00 0.00 0.00 80 1014.0
20260507024011 73 132 0.0 2.6 0.00 0.00 0.00 80 1013.9
20260507023510 73 115 0.9 2.6 0.00 0.00 0.00 80 1013.8
20260507023025 73 215 0.0 3.5 0.00 0.00 0.00 80 1013.5
20260507022507 73 229 0.0 3.5 0.00 0.00 0.00 79 1013.3
20260507022013 73 215 0.0 1.7 0.00 0.00 0.00 78 1013.5
20260507021529 73 215 0.0 3.5 0.00 0.00 0.00 78 1013.6
20260507021007 73 194 0.0 3.5 0.00 0.00 0.00 78 1013.8
20260507020507 73 197 0.0 1.7 0.00 0.00 0.00 78 1013.8
20260507020027 73 214 0.0 1.7 0.00 0.00 0.00 79 1014.1
20260507015507 73 203 0.0 2.6 0.00 0.00 0.00 79 1014.1
20260507015007 73 200 0.0 2.6 0.00 0.00 0.00 79 1014.2
20260507014521 73 175 0.0 2.6 0.00 0.00 0.00 78 1014.2
20260507014009 73 195 0.9 3.5 0.00 0.00 0.00 78 1014.3
20260507013508 73 178 0.9 3.5 0.00 0.00 0.00 78 1014.4
20260507013004 73 275 0.0 3.5 0.00 0.00 0.00 77 1014.2
20260507012503 73 236 0.0 3.5 0.00 0.00 0.00 77 1014.1
20260507012004 73 192 0.0 1.7 0.00 0.00 0.00 77 1014.2
20260507011508 73 182 0.0 2.6 0.00 0.00 0.00 77 1014.4
20260507011004 73 197 0.0 2.6 0.00 0.00 0.00 76 1014.5
20260507010503 73 130 0.0 2.6 0.00 0.00 0.00 76 1014.5
20260507010012 73 190 0.0 3.5 0.00 0.00 0.00 76 1014.5
20260507005503 73 134 0.0 3.5 0.00 0.00 0.00 76 1014.5
20260507005010 73 205 0.0 6.1 0.00 0.00 0.00 76 1014.6
20260507004517 73 179 0.0 6.1 0.00 0.00 0.00 76 1014.5
20260507004008 73 175 0.0 2.6 0.00 0.00 0.00 76 1014.4
20260507003507 73 212 0.0 1.7 0.00 0.00 0.00 76 1014.3
20260507003023 73 151 0.0 1.7 0.00 0.00 0.00 75 1014.3
20260507002510 73 187 0.0 1.7 0.00 0.00 0.00 75 1014.5
20260507002012 74 199 0.0 1.7 0.00 0.00 0.00 75 1014.4
20260507001504 74 246 0.0 1.7 0.00 0.00 0.00 74 1014.3
20260507001007 74 186 0.0 2.6 0.00 0.00 0.00 74 1014.3
20260507000504 74 168 0.0 2.6 0.00 0.00 0.00 73 1014.3
20260507000006 74 177 0.0 1.7 0.00 0.00 0.00 73 1014.3
20260506235505 74 209 0.0 7.0 0.00 0.00 0.00 72 1014.5
20260506235004 74 100 0.9 7.0 0.00 0.00 0.00 71 1014.5
20260506234519 74 179 0.0 2.6 0.00 0.00 0.00 71 1014.5
20260506234007 75 185 0.0 2.6 0.00 0.00 0.00 71 1014.6
20260506233507 75 135 0.0 2.6 0.00 0.00 0.00 70 1014.5
20260506233017 75 192 0.0 1.7 0.00 0.00 0.00 70 1014.3
20260506232507 75 92 0.0 1.7 0.00 0.00 0.00 69 1014.3
20260506232007 75 115 0.0 4.3 0.00 0.00 0.00 69 1014.3
20260506231526 75 169 0.9 4.3 0.00 0.00 0.00 68 1014.3
20260506231009 75 183 0.0 3.5 0.00 0.00 0.00 68 1014.4
20260506230509 76 169 0.9 3.5 0.00 0.00 0.00 67 1014.4
20260506230008 76 166 0.0 3.5 0.00 0.00 0.00 66 1014.4
20260506225504 76 131 0.0 4.3 0.00 0.00 0.00 66 1014.2
20260506225004 76 216 0.9 4.3 0.00 0.00 0.00 66 1014.4
20260506224510 76 273 0.9 3.5 0.00 0.00 0.00 65 1014.3
20260506224003 76 176 0.0 2.6 0.00 0.00 0.00 64 1014.4
20260506223504 77 224 0.9 2.6 0.00 0.00 0.00 64 1014.3
20260506223016 77 227 0.0 4.3 0.00 0.00 0.00 63 1014.1
20260506222507 77 177 0.0 4.3 0.00 0.00 0.00 62 1014.0
20260506222016 77 220 0.0 4.3 0.00 0.00 0.00 62 1014.1
20260506221521 78 243 0.0 4.3 0.00 0.00 0.00 62 1014.1
20260506221015 78 229 0.0 4.3 0.00 0.00 0.00 62 1014.1
20260506220506 78 196 0.0 7.8 0.00 0.00 0.00 63 1014.1
20260506220029 78 202 1.7 7.8 0.00 0.00 0.00 61 1014.0
20260506215514 78 245 0.9 4.3 0.00 0.00 0.00 62 1014.0
20260506215007 79 172 1.7 4.3 0.00 0.00 0.00 61 1014.2
20260506214509 79 154 0.9 4.3 0.00 0.00 0.00 60 1014.2
20260506214006 79 248 0.9 6.1 0.00 0.00 0.00 60 1014.3
20260506213505 79 95 0.9 6.1 0.00 0.00 0.00 60 1014.3
20260506213013 79 69 0.9 5.2 0.00 0.00 0.00 60 1014.4
20260506212504 79 130 0.9 5.2 0.00 0.00 0.00 59 1014.4
20260506212008 80 202 1.7 4.3 0.00 0.00 0.00 58 1014.4
20260506211525 80 15 0.0 6.1 0.00 0.00 0.00 58 1014.4
20260506211006 80 146 0.9 6.1 0.00 0.00 0.00 58 1014.4
20260506210512 80 204 0.9 4.3 0.00 0.00 0.00 59 1014.3
20260506210032 80 165 0.9 4.3 0.00 0.00 0.00 57 1014.4
20260506205510 80 189 0.0 2.6 0.00 0.00 0.00 59 1014.3
20260506205015 80 190 0.9 4.3 0.00 0.00 0.00 57 1014.3
20260506204525 80 159 0.9 6.1 0.00 0.00 0.00 57 1014.2
20260506204012 81 167 0.9 6.1 0.00 0.00 0.00 56 1014.3
20260506203511 81 165 0.9 5.2 0.00 0.00 0.00 57 1014.5
20260506203009 81 120 0.9 5.2 0.00 0.00 0.00 56 1014.6
20260506202509 81 163 0.0 3.5 0.00 0.00 0.00 57 1014.6
20260506202006 81 206 0.9 8.7 0.00 0.00 0.00 58 1014.6
20260506201516 81 168 0.0 8.7 0.00 0.00 0.00 58 1014.8
20260506201011 82 198 0.9 4.3 0.00 0.00 0.00 56 1014.8
20260506200507 82 233 0.9 3.5 0.00 0.00 0.00 57 1014.9
20260506200035 82 109 0.9 5.2 0.00 0.00 0.00 57 1014.9
20260506195510 82 303 1.7 5.2 0.00 0.00 0.00 56 1014.9
20260506195013 83 211 0.9 5.2 0.00 0.00 0.00 56 1015.1
20260506194522 83 169 0.9 4.3 0.00 0.00 0.00 55 1015.1
20260506194009 83 178 0.9 3.5 0.00 0.00 0.00 55 1015.1
20260506193509 84 161 0.9 3.5 0.00 0.00 0.00 54 1015.1
20260506193028 84 139 0.0 2.6 0.00 0.00 0.00 55 1015.2
20260506192507 84 157 0.0 3.5 0.00 0.00 0.00 55 1015.1
20260506192011 85 185 0.0 3.5 0.00 0.00 0.00 55 1014.9
20260506191528 85 189 0.0 3.5 0.00 0.00 0.00 55 1015.1
20260506191005 85 239 0.9 3.5 0.00 0.00 0.00 54 1015.2
20260506190508 85 205 0.9 6.1 0.00 0.00 0.00 53 1015.4
20260506190019 85 227 0.9 6.1 0.00 0.00 0.00 53 1015.4
20260506185508 85 214 0.9 6.1 0.00 0.00 0.00 55 1015.6
20260506185009 85 160 0.0 2.6 0.00 0.00 0.00 54 1015.7
20260506184524 85 118 0.0 2.6 0.00 0.00 0.00 56 1015.8
20260506184010 85 238 0.0 2.6 0.00 0.00 0.00 55 1015.9
20260506183511 85 86 0.0 2.6 0.00 0.00 0.00 56 1015.9
20260506183025 85 105 0.0 2.6 0.00 0.00 0.00 55 1016.2
20260506182508 85 143 0.0 4.3 0.00 0.00 0.00 56 1016.2
20260506182010 84 28 0.0 4.3 0.00 0.00 0.00 57 1016.2
20260506181526 84 174 0.0 2.6 0.00 0.00 0.00 57 1016.1
20260506181008 84 165 0.0 2.6 0.00 0.00 0.00 58 1016.2
20260506180508 84 129 0.0 3.5 0.00 0.00 0.00 60 1016.3
20260506180018 84 180 0.9 3.5 0.00 0.00 0.00 59 1016.3
20260506175507 84 219 0.0 1.7 0.00 0.00 0.00 59 1016.3
20260506175007 83 188 0.0 1.7 0.00 0.00 0.00 61 1016.4
20260506174518 83 193 0.0 2.6 0.00 0.00 0.00 61 1016.6
20260506174010 82 235 0.0 2.6 0.00 0.00 0.00 62 1016.5
20260506173508 82 163 0.0 1.7 0.00 0.00 0.00 63 1016.7
20260506173025 82 165 0.0 1.7 0.00 0.00 0.00 61 1016.8
20260506172509 82 123 0.0 1.7 0.00 0.00 0.00 61 1016.8
20260506172008 82 154 0.0 3.5 0.00 0.00 0.00 61 1016.8
20260506171527 82 202 0.9 3.5 0.00 0.00 0.00 60 1016.9
20260506171011 82 155 0.9 3.5 0.00 0.00 0.00 58 1016.9
20260506170511 82 20 0.0 7.8 0.00 0.00 0.00 58 1016.9
20260506170027 82 141 0.9 7.8 0.00 0.00 0.00 56 1017.0
20260506165508 82 157 0.0 2.6 0.00 0.00 0.00 60 1017.0
20260506165010 82 88 0.0 2.6 0.00 0.00 0.00 59 1016.9
20260506164516 82 147 0.0 3.5 0.00 0.00 0.00 59 1016.8
20260506164008 82 195 0.9 3.5 0.00 0.00 0.00 59 1016.9
20260506163503 82 142 0.9 3.5 0.00 0.00 0.00 61 1017.0
20260506163004 82 182 0.0 5.2 0.00 0.00 0.00 61 1016.9
20260506162503 81 155 0.9 5.2 0.00 0.00 0.00 59 1017.0
20260506162002 81 206 0.0 1.7 0.00 0.00 0.00 61 1017.0
20260506161505 80 150 0.0 5.2 0.00 0.00 0.00 61 1017.1
20260506161004 80 146 0.0 5.2 0.00 0.00 0.00 60 1017.2
20260506160505 80 80 0.0 3.5 0.00 0.00 0.00 61 1017.4
20260506160011 80 131 0.9 3.5 0.00 0.00 0.00 61 1017.4
20260506155507 80 85 0.0 3.5 0.00 0.00 0.00 60 1017.3
20260506155004 80 206 0.9 3.5 0.00 0.00 0.00 60 1017.4
20260506154508 80 241 0.0 3.5 0.00 0.00 0.00 60 1017.3
20260506154003 80 261 0.0 3.5 0.00 0.00 0.00 60 1017.4
20260506153503 80 266 0.0 3.5 0.00 0.00 0.00 60 1017.4
20260506153003 80 161 0.0 3.5 0.00 0.00 0.00 59 1017.4
20260506152503 80 182 0.9 4.3 0.00 0.00 0.00 59 1017.4
20260506152004 80 123 0.9 4.3 0.00 0.00 0.00 57 1017.4
20260506151504 80 140 0.9 3.5 0.00 0.00 0.00 57 1017.5
20260506151004 80 205 0.0 2.6 0.00 0.00 0.00 57 1017.4
20260506150506 81 184 0.9 6.1 0.00 0.00 0.00 56 1017.3
20260506150005 81 153 1.7 6.1 0.00 0.00 0.00 54 1017.4
20260506145506 81 156 0.0 3.5 0.00 0.00 0.00 55 1017.3
20260506145005 80 107 0.9 3.5 0.00 0.00 0.00 53 1017.3
20260506144508 80 154 0.9 8.7 0.00 0.00 0.00 54 1017.2
20260506144004 80 82 1.7 8.7 0.00 0.00 0.00 52 1017.2
20260506143504 80 62 0.0 6.1 0.00 0.00 0.00 54 1017.1
20260506143007 80 182 0.0 4.3 0.00 0.00 0.00 56 1017.0
20260506142504 79 244 0.0 3.5 0.00 0.00 0.00 56 1017.0
20260506142002 79 92 0.9 7.8 0.00 0.00 0.00 56 1017.0
20260506141504 79 182 1.7 7.8 0.00 0.00 0.00 56 1017.0
20260506141004 79 194 0.0 3.5 0.00 0.00 0.00 58 1017.1
20260506140504 79 34 0.0 3.5 0.00 0.00 0.00 57 1017.1
20260506140006 79 150 0.0 5.2 0.00 0.00 0.00 57 1017.1
20260506135505 78 210 0.9 5.2 0.00 0.00 0.00 58 1017.1
20260506135008 78 142 0.9 6.1 0.00 0.00 0.00 56 1017.0
20260506134510 78 36 0.0 6.1 0.00 0.00 0.00 59 1016.8
20260506134005 78 218 0.0 3.5 0.00 0.00 0.00 60 1016.9
20260506133504 77 117 0.9 3.5 0.00 0.00 0.00 60 1016.8
20260506133013 77 183 0.0 2.6 0.00 0.00 0.00 60 1016.8
20260506132504 77 227 0.0 2.6 0.00 0.00 0.00 63 1016.8
20260506132013 76 175 0.0 1.7 0.00 0.00 0.00 64 1016.9
20260506131513 76 192 0.0 1.7 0.00 0.00 0.00 66 1016.8
20260506131004 75 190 0.0 3.5 0.00 0.00 0.00 68 1016.7
20260506130504 74 240 0.9 3.5 0.00 0.00 0.00 68 1016.7
20260506130010 74 19 0.0 2.6 0.00 0.00 0.00 71 1016.7
20260506125503 73 140 0.9 2.6 0.00 0.00 0.00 71 1016.6
20260506125004 72 153 0.0 1.7 0.00 0.00 0.00 75 1016.5
20260506124510 71 153 0.0 1.7 0.00 0.00 0.00 76 1016.6
20260506124004 70 82 0.0 1.7 0.00 0.00 0.00 79 1016.5
20260506123505 69 210 0.0 1.7 0.00 0.00 0.00 81 1016.5
20260506123014 69 201 0.0 2.6 0.00 0.00 0.00 82 1016.5
20260506122505 68 210 0.0 2.6 0.00 0.00 0.00 84 1016.6
20260506122008 67 217 0.0 1.7 0.00 0.00 0.00 86 1016.6
20260506121515 67 182 0.0 1.7 0.00 0.00 0.00 87 1016.7
20260506121005 66 279 0.0 1.7 0.00 0.00 0.00 89 1016.6
20260506120505 66 187 0.0 0.9 0.00 0.00 0.00 91 1016.6
20260506120017 65 111 0.0 0.9 0.00 0.00 0.00 92 1016.5
20260506115504 65 148 0.0 0.0 0.00 0.00 0.00 92 1016.5
20260506115008 64 144 0.0 0.0 0.00 0.00 0.00 92 1016.5
20260506114513 63 144 0.0 0.0 0.00 0.00 0.00 92 1016.4
20260506114005 62 144 0.0 0.0 0.00 0.00 0.00 91 1016.3
20260506113504 62 144 0.0 0.0 0.00 0.00 0.00 91 1016.2
20260506113011 62 144 0.0 0.0 0.00 0.00 0.00 91 1016.3
20260506112508 61 144 0.0 0.0 0.00 0.00 0.00 90 1016.1
20260506112008 61 144 0.0 0.0 0.00 0.00 0.00 90 1016.0
20260506111515 61 144 0.0 0.0 0.00 0.00 0.00 90 1016.0
20260506111007 61 144 0.0 0.0 0.00 0.00 0.00 90 1016.1
20260506110507 61 144 0.0 0.0 0.00 0.00 0.00 90 1016.1
20260506110021 60 144 0.0 0.0 0.00 0.00 0.00 90 1016.0
20260506105507 60 144 0.0 0.0 0.00 0.00 0.00 89 1016.0
20260506105006 60 144 0.0 0.0 0.00 0.00 0.00 89 1016.0
20260506104516 60 144 0.0 0.0 0.00 0.00 0.00 89 1016.0
20260506104007 60 144 0.0 0.0 0.00 0.00 0.00 89 1016.0
20260506103504 60 144 0.0 0.0 0.00 0.00 0.00 89 1015.8
20260506103023 60 144 0.0 0.0 0.00 0.00 0.00 88 1015.8
20260506102507 60 144 0.0 0.0 0.00 0.00 0.00 88 1015.8
20260506102007 60 144 0.0 0.0 0.00 0.00 0.00 88 1015.8
20260506101515 60 144 0.0 0.0 0.00 0.00 0.00 88 1015.8
20260506101008 60 144 0.0 0.0 0.00 0.00 0.00 88 1015.8
20260506100507 60 144 0.0 0.0 0.00 0.00 0.00 89 1015.9
20260506100022 60 144 0.0 0.0 0.00 0.00 0.00 88 1015.8
20260506095507 60 144 0.0 0.0 0.00 0.00 0.00 88 1015.8
20260506095008 60 144 0.0 0.0 0.00 0.00 0.00 88 1015.6
20260506094530 60 144 0.0 0.0 0.00 0.00 0.00 88 1015.7
20260506094009 60 144 0.0 0.0 0.00 0.00 0.00 88 1015.7
20260506093508 60 144 0.0 0.0 0.00 0.00 0.00 88 1015.7
20260506093039 61 144 0.0 0.0 0.00 0.00 0.00 88 1015.8
20260506092504 61 144 0.0 0.0 0.00 0.00 0.00 88 1015.8
20260506092004 61 144 0.0 0.0 0.00 0.00 0.00 88 1015.8
20260506091512 61 144 0.0 0.0 0.00 0.00 0.00 87 1015.8
20260506091005 61 144 0.0 0.0 0.00 0.00 0.00 88 1015.8
20260506090505 61 144 0.0 0.0 0.00 0.00 0.00 87 1015.9
20260506090017 61 144 0.0 0.0 0.00 0.00 0.00 87 1015.7
20260506085505 61 144 0.0 0.0 0.00 0.00 0.00 87 1015.8
20260506085006 61 144 0.0 0.0 0.00 0.00 0.00 87 1015.8
20260506084525 61 144 0.0 0.0 0.00 0.00 0.00 87 1016.0
20260506084009 61 144 0.0 0.0 0.00 0.00 0.00 87 1016.0
20260506083508 61 144 0.0 0.0 0.00 0.00 0.00 87 1016.0
20260506083023 61 144 0.0 0.0 0.00 0.00 0.00 87 1016.0
20260506082513 61 144 0.0 0.0 0.00 0.00 0.00 87 1015.9
20260506082007 61 144 0.0 0.0 0.00 0.00 0.00 87 1016.0
20260506081522 61 144 0.0 0.0 0.00 0.00 0.00 87 1015.9
20260506081005 61 144 0.0 0.0 0.00 0.00 0.00 86 1015.8
20260506080505 61 144 0.0 0.0 0.00 0.00 0.00 86 1015.8
20260506073503 62 144 0.0 0.0 0.00 0.00 0.00 86 1015.6
20260506073004 62 144 0.0 0.0 0.00 0.00 0.00 86 1015.7
20260506072504 62 144 0.0 0.0 0.00 0.00 0.00 86 1015.7
20260506072004 62 144 0.0 0.0 0.00 0.00 0.00 86 1015.7
20260506071507 62 144 0.0 0.0 0.00 0.00 0.00 86 1015.7
20260506071005 62 144 0.0 0.0 0.00 0.00 0.00 86 1015.6
20260506070506 62 144 0.0 0.0 0.00 0.00 0.00 86 1015.7